Wetbulb
70.96 70.48 72.12 72.37 72.70 72.62 71.61 72.40 74.04 74.63 74.58 73.46 73.83 74.18 74.47 75.21 74.41 73.57 72.50 72.72 69.05 66.40 60.73 58.12 56.51 56.27 55.28 54.91 53.93 53.69 53.76 50.92 49.64 51.19 52.94 54.16 53.35 55.80 54.79 54.72 56.57 54.93 56.30
71.88 71.20 70.62 73.46 73.77 73.97 73.81 73.59 73.83 74.13 74.59 74.21 74.27 74.67 74.82 75.13 74.19 73.75 72.99 72.66 68.92 62.15 58.52 57.22 56.48 58.61 55.82 54.40 52.09 50.88 51.11 51.56 50.33 48.42 49.88 50.93 52.20 52.98 53.76 52.68 55.01 55.58 55.07
73.07 73.16 72.47 73.61 74.23 74.62 75.17 75.04 75.27 75.12 74.22 74.49 74.83 74.75 74.67 74.75 73.76 74.00 73.20 70.24 67.58 61.23 58.16 57.62 57.47 55.50 53.96 52.30 50.00 49.36 48.71 50.69 49.30 48.24 47.60 49.40 50.47 52.25 52.39 54.35 53.70 53.52 54.87
73.65 73.58 73.43 73.69 74.58 74.86 75.17 75.09 75.39 75.71 75.00 74.75 74.66 75.32 75.70 74.99 74.15 72.68 70.21 66.20 62.70 59.90 57.06 54.89 55.78 55.44 52.58 48.90 48.96 47.55 47.10 47.11 47.19 47.74 47.41 47.15 47.94 50.13 50.92 50.91 51.39 52.53 51.50
73.45 73.25 73.39 74.23 74.86 74.96 74.72 75.40 75.65 75.49 75.80 75.23 74.86 75.18 74.86 74.92 74.38 72.20 68.11 62.79 58.50 54.57 53.41 54.22 55.30 57.55 57.34 52.11 47.17 45.48 46.60 47.16 47.32 46.86 46.54 46.19 46.95 47.74 48.33 50.22 49.92 51.80 50.94
73.23 73.29 73.78 74.13 74.45 74.92 75.11 75.53 75.84 75.56 75.42 74.91 74.99 75.28 74.76 76.08 67.34 67.20 65.03 60.64 56.03 53.24 52.66 53.07 54.34 57.02 57.76 58.69 57.69 55.06 50.89 48.01 47.33 46.36 46.06 45.45 46.37 46.88 48.37 48.92 48.93 53.56 47.45
73.00 73.41 73.38 74.45 74.16 74.67 75.43 75.74 76.07 75.40 75.05 74.36 74.68 74.49 73.84 71.53 65.09 63.98 63.03 59.44 53.69 51.38 50.63 50.45 52.13 55.06 53.02 52.00 57.38 57.78 57.34 56.81 53.62 48.13 46.88 47.36 46.33 48.08 48.39 48.39 48.91 48.56 49.53
72.45 72.79 73.21 73.76 74.33 74.67 75.22 75.31 75.54 74.72 74.84 73.89 74.86 73.92 71.76 69.68 62.43 60.12 60.95 57.01 53.34 51.70 51.75 52.24 52.16 50.23 50.26 51.07 49.34 50.08 50.40 48.96 50.13 52.76 50.63 51.13 51.44 51.07 48.84 48.87 47.97 48.79 51.76
71.56 72.25 73.38 73.49 74.13 74.69 74.55 75.23 75.27 74.73 73.97 74.00 74.60 72.75 71.42 66.88 58.99 58.05 59.07 55.61 53.80 53.56 54.39 53.78 54.77 53.42 54.91 55.58 50.47 49.64 47.54 47.51 54.64 55.23 55.25 55.27 55.95 55.88 54.54 50.25 48.55 47.07 48.70
71.39 72.20 73.87 73.97 74.11 74.62 75.16 75.11 75.45 74.67 74.84 75.41 74.81 73.13 68.26 67.54 57.54 56.81 58.11 57.31 55.99 56.09 54.40 56.56 57.54 55.04 55.91 55.54 53.30 51.17 48.78 49.21 46.84 46.61 49.59 52.49 52.97 52.80 54.62 50.12 48.99 49.56 49.37
72.28 73.01 74.10 74.56 74.38 74.90 75.37 75.73 75.15 74.99 74.53 75.21 74.86 71.72 70.87 67.41 60.73 55.98 56.92 60.11 58.73 57.09 56.56 54.81 52.96 53.97 52.74 52.66 51.46 48.38 49.53 51.83 52.21 47.85 50.66 50.64 51.22 51.35 50.80 49.89 49.87 49.73 49.52
74.03 73.93 74.35 74.72 75.17 75.83 75.53 75.86 75.62 75.33 74.63 74.27 73.98 71.74 70.68 68.46 59.68 56.23 56.71 57.84 58.65 57.80 55.64 53.19 52.01 51.34 50.08 51.53 52.05 51.39 51.43 52.73 48.33 47.28 49.15 49.00 49.42 50.39 50.57 52.25 50.78 50.22 51.26
72.86 74.21 74.68 75.38 75.48 76.13 75.86 75.64 75.53 75.45 75.05 74.36 73.59 72.19 69.59 67.89 63.54 55.11 55.14 55.56 56.48 56.53 54.91 53.30 51.80 48.99 48.46 49.40 50.83 50.73 51.38 50.18 46.24 45.92 45.77 47.51 49.83 51.44 51.13 53.44 52.47 49.94 50.53
69.93 74.02 74.81 75.83 74.92 76.50 76.60 76.61 76.13 75.39 75.10 75.03 73.91 72.56 69.88 68.12 64.49 60.78 61.05 58.65 56.50 56.55 55.37 52.61 51.29 50.17 49.79 49.78 49.19 49.81 50.27 49.65 46.11 46.08 47.12 51.06 51.13 50.86 50.84 53.90 51.92 49.61 47.94
67.52 73.79 74.65 75.69 74.60 76.38 75.88 72.45 76.49 76.76 74.47 75.89 75.12 73.42 70.33 68.51 66.30 60.01 59.72 60.85 59.32 54.98 50.77 48.29 47.25 46.48 47.51 47.29 48.54 50.79 47.57 49.77 47.67 47.34 47.25 49.07 51.17 51.66 51.69 52.31 52.41 49.97 47.27
67.74 72.53 74.68 75.13 75.15 76.27 70.55 65.68 52.03 51.01 52.65 58.67 61.13 69.29 71.46 61.10 53.86 52.88 49.67 49.97 48.05 47.99 49.74 47.42 46.52 46.29 47.38 47.25 48.22 46.16 48.63 50.14 47.82 47.49 47.11 49.25 51.99 52.53 51.38 50.18 50.20 49.38 47.80
67.65 67.81 71.20 71.88 75.14 73.85 71.56 70.43 68.35 58.01 48.34 47.60 54.14 57.40 56.68 54.69 50.49 49.32 46.00 45.03 46.02 48.66 50.68 47.66 47.93 47.97 48.68 47.61 47.86 48.10 50.07 48.52 48.08 46.29 45.48 46.95 52.04 52.06 50.36 48.98 48.52 48.44 47.38
66.12 60.85 70.86 72.13 72.13 74.20 72.98 72.03 70.54 67.61 67.61 64.84 49.55 51.60 46.89 47.98 46.91 44.61 43.71 46.98 49.64 51.87 53.61 51.03 49.48 49.91 50.46 49.79 50.72 50.57 49.01 50.04 48.14 46.77 46.16 47.42 50.91 52.26 50.31 48.74 48.02 47.27 46.34
65.66 66.86 69.44 69.75 70.45 70.00 70.90 70.36 69.89 69.32 66.19 61.73 56.34 51.67 46.41 44.94 44.65 43.66 46.30 57.39 54.13 55.50 53.57 51.86 51.47 51.36 51.82 52.65 52.95 51.76 50.33 50.50 49.81 48.88 47.56 47.53 49.28 51.78 49.55 49.59 48.36 47.13 46.93
64.74 62.24 63.34 67.76 68.15 67.88 67.56 66.58 67.68 67.81 65.63 64.35 65.73 60.08 53.03 54.32 55.96 52.70 56.28 58.91 58.09 57.79 56.18 53.59 53.42 52.96 53.72 54.89 53.89 52.62 49.89 49.24 50.14 50.78 48.52 47.78 47.29 51.00 50.85 49.62 48.58 47.60 46.25
63.53 64.44 62.03 65.26 67.04 67.54 66.23 64.56 64.83 65.90 65.22 64.21 60.58 57.67 52.15 61.68 59.14 56.29 57.36 59.56 59.09 57.65 57.68 58.62 55.87 55.83 55.74 56.05 54.98 52.75 51.27 50.59 50.04 50.83 47.92 46.87 46.62 47.45 49.85 50.00 49.48 48.32 47.67
60.25 61.28 63.45 64.19 63.61 63.59 65.26 64.84 64.35 64.44 65.18 62.81 60.30 58.97 52.87 62.61 61.55 60.05 61.26 60.61 60.21 60.76 60.63 61.55 63.24 59.92 59.77 58.03 56.75 53.71 52.10 51.51 50.95 51.69 48.61 47.12 46.24 46.60 47.76 49.39 49.44 48.78 47.79
58.10 58.70 59.20 60.13 60.89 59.33 61.52 61.51 60.26 59.88 60.56 62.63 62.34 62.84 63.28 63.08 62.17 61.82 60.96 61.44 62.60 63.75 64.96 65.90 65.89 63.57 60.88 60.88 58.43 56.67 53.57 52.91 53.26 53.35 51.30 48.29 47.42 47.57 47.64 48.62 49.11 48.79 48.09
56.40 56.58 55.99 55.41 54.74 55.48 56.44 57.10 56.84 53.46 56.60 55.22 55.38 56.14 56.48 58.47 60.07 59.69 61.09 61.94 61.31 61.95 63.44 64.69 65.57 65.53 62.17 61.86 59.22 57.32 55.90 53.52 53.72 54.21 53.60 50.72 49.23 47.16 47.49 48.17 48.83 49.36 48.91
55.12 54.97 54.13 54.09 53.30 52.96 52.96 52.86 53.44 53.60 53.78 53.24 52.27 52.83 52.53 53.09 52.14 53.44 52.73 54.99 57.44 62.52 62.91 62.76 64.59 62.88 61.64 61.03 59.89 58.28 51.04 40.21 51.94 48.30 53.31 52.31 50.32 49.10 49.09 49.34 48.16 48.14 47.22
52.80 53.71 53.76 53.71 52.49 51.84 51.32 50.93 50.95 50.89 50.62 50.38 49.81 49.65 48.96 49.32 49.00 48.96 50.56 50.20 51.61 53.61 55.12 62.56 63.23 63.34 63.92 62.82 61.78 53.11 41.81 39.29 43.92 42.69 53.61 53.23 51.43 50.30 49.95 49.78 48.07 48.67 48.34
MSLP
1011.12 1011.68 1012.38 1012.86 1013.26 1013.60 1013.95 1014.16 1014.19 1014.06 1014.06 1014.04 1013.93 1013.91 1014.01 1014.08 1014.24 1014.33 1014.64 1015.02 1015.38 1015.84 1016.04 1016.16 1016.66 1016.82 1017.04 1017.09 1017.02 1017.01 1017.01 1017.12 1018.04 1018.21 1017.85 1017.39 1017.02 1016.91 1016.99 1017.00 1017.03 1016.99 1016.94
1010.35 1011.07 1011.68 1012.24 1012.76 1013.13 1013.42 1013.65 1013.88 1013.90 1013.90 1013.88 1013.84 1013.83 1013.94 1014.02 1014.19 1014.46 1014.86 1015.27 1015.75 1016.29 1016.61 1016.78 1017.27 1017.36 1017.74 1017.68 1017.53 1017.71 1017.49 1017.51 1018.06 1018.56 1018.33 1017.98 1017.61 1017.32 1017.27 1017.34 1017.12 1017.04 1017.07
1009.86 1010.54 1011.18 1011.73 1012.35 1012.70 1012.86 1013.14 1013.46 1013.59 1013.60 1013.53 1013.64 1013.67 1013.83 1014.09 1014.42 1014.71 1014.97 1015.42 1016.07 1016.66 1017.06 1017.40 1017.85 1017.94 1018.45 1018.36 1018.28 1018.34 1018.36 1018.36 1018.51 1018.83 1018.76 1018.42 1018.06 1017.76 1017.59 1017.34 1017.18 1017.11 1017.00
1009.37 1010.00 1010.65 1011.10 1011.54 1011.95 1012.35 1012.69 1013.01 1013.15 1013.30 1013.30 1013.48 1013.56 1013.76 1014.13 1014.52 1014.82 1015.32 1015.87 1016.55 1017.20 1017.63 1017.84 1018.07 1018.26 1018.62 1018.77 1018.82 1019.10 1019.12 1019.22 1019.23 1019.16 1019.05 1018.90 1018.76 1018.15 1017.92 1017.79 1017.41 1017.19 1017.09
1008.66 1009.42 1009.88 1010.31 1010.90 1011.46 1011.98 1012.32 1012.60 1012.73 1012.90 1013.01 1013.31 1013.42 1013.59 1014.04 1014.46 1014.89 1015.50 1016.29 1016.97 1017.65 1017.98 1018.13 1018.31 1018.48 1018.65 1018.78 1019.01 1019.38 1019.32 1019.49 1019.61 1019.69 1019.67 1019.47 1019.16 1018.70 1018.29 1017.85 1017.55 1017.24 1017.33
1007.96 1008.56 1009.31 1009.96 1010.51 1011.05 1011.51 1011.97 1012.24 1012.42 1012.51 1012.82 1013.09 1013.22 1013.41 1013.80 1014.31 1014.88 1015.49 1016.44 1017.21 1017.74 1018.27 1018.56 1018.74 1018.84 1019.13 1019.15 1019.17 1019.23 1019.28 1019.59 1019.72 1019.87 1020.07 1019.97 1019.52 1019.00 1018.46 1017.99 1017.60 1017.40 1017.68
1007.33 1008.14 1008.86 1009.52 1010.14 1010.63 1011.01 1011.54 1011.82 1012.06 1012.19 1012.58 1012.88 1013.03 1013.33 1013.72 1014.24 1014.96 1015.56 1016.35 1017.10 1017.70 1018.15 1018.63 1019.02 1019.19 1019.30 1019.53 1019.60 1019.64 1019.66 1019.80 1019.88 1020.00 1020.14 1020.04 1019.68 1019.09 1018.64 1018.08 1017.88 1017.84 1017.99
1007.17 1007.77 1008.38 1009.00 1009.57 1010.11 1010.64 1011.09 1011.33 1011.62 1011.83 1012.30 1012.69 1012.94 1013.42 1013.98 1014.46 1015.05 1015.63 1016.47 1017.19 1017.82 1018.30 1018.72 1019.10 1019.36 1019.42 1019.70 1019.94 1019.98 1020.02 1020.10 1020.15 1020.12 1020.06 1019.95 1019.60 1019.04 1018.71 1018.24 1018.15 1018.19 1017.96
1006.60 1007.30 1007.90 1008.40 1008.98 1009.57 1010.12 1010.52 1010.77 1011.15 1011.51 1011.91 1012.27 1012.84 1013.42 1014.26 1014.66 1015.12 1015.78 1016.67 1017.52 1018.18 1018.62 1018.97 1019.26 1019.48 1019.47 1019.62 1020.07 1020.54 1020.50 1020.33 1020.13 1020.06 1020.07 1019.91 1019.66 1019.14 1018.85 1018.54 1018.52 1018.52 1018.42
1006.08 1006.62 1007.25 1007.80 1008.38 1008.88 1009.37 1009.82 1010.14 1010.50 1010.98 1011.54 1012.10 1012.58 1013.10 1014.04 1014.74 1015.21 1015.80 1016.65 1017.60 1018.17 1018.60 1019.06 1019.33 1019.41 1019.44 1019.64 1019.98 1020.54 1020.74 1020.61 1020.31 1020.37 1020.54 1020.50 1020.09 1019.83 1019.51 1019.35 1019.16 1018.96 1018.64
1005.71 1006.17 1006.78 1007.21 1007.72 1008.16 1008.73 1009.19 1009.66 1010.21 1010.72 1011.28 1011.88 1012.59 1013.20 1013.84 1014.73 1015.04 1015.55 1016.47 1017.10 1017.92 1018.57 1019.03 1019.20 1019.51 1019.58 1019.75 1019.93 1020.21 1020.36 1020.34 1020.40 1020.57 1020.84 1020.97 1020.76 1020.64 1020.48 1020.17 1019.72 1019.50 1019.21
1006.23 1005.91 1006.31 1006.73 1007.16 1007.76 1008.25 1008.76 1009.22 1009.84 1010.52 1011.13 1011.79 1012.58 1013.26 1013.97 1014.37 1014.96 1015.59 1015.92 1016.71 1017.34 1018.11 1018.58 1018.84 1019.20 1019.58 1019.88 1020.06 1020.18 1020.23 1020.14 1020.56 1021.02 1021.22 1021.29 1021.32 1021.20 1021.07 1020.67 1020.40 1020.15 1019.78
1006.48 1006.26 1006.23 1006.57 1006.84 1007.12 1007.69 1008.39 1009.16 1009.68 1010.28 1010.98 1011.55 1012.26 1013.12 1013.87 1014.73 1015.18 1015.39 1015.92 1016.60 1017.25 1017.71 1018.18 1018.82 1019.20 1019.43 1019.72 1020.03 1020.18 1020.16 1020.27 1020.61 1020.90 1021.26 1021.28 1021.21 1021.20 1021.19 1021.09 1020.93 1020.94 1020.56
1007.02 1006.60 1006.18 1006.51 1006.90 1007.27 1007.76 1008.38 1008.76 1009.29 1009.85 1010.49 1011.22 1011.95 1012.86 1013.64 1014.64 1015.29 1015.58 1016.01 1016.52 1017.24 1017.90 1018.62 1018.94 1019.27 1019.54 1019.70 1019.97 1020.15 1020.16 1020.23 1020.50 1020.80 1021.19 1021.08 1021.20 1021.32 1021.42 1021.49 1021.42 1021.43 1021.31
1007.28 1006.97 1006.53 1006.56 1006.86 1007.42 1008.04 1008.66 1008.90 1008.82 1009.31 1009.93 1010.68 1011.44 1012.28 1013.05 1013.78 1014.40 1014.93 1015.72 1016.27 1016.88 1017.86 1018.63 1019.30 1019.56 1019.86 1019.96 1019.98 1020.14 1020.27 1020.39 1020.55 1020.68 1021.14 1021.20 1021.34 1021.45 1021.51 1021.48 1021.58 1022.00 1022.01
1007.39 1007.53 1006.52 1006.62 1006.84 1007.32 1008.19 1009.18 1009.49 1009.40 1009.43 1009.64 1010.02 1010.85 1011.68 1011.96 1012.86 1014.04 1014.74 1015.26 1016.03 1016.68 1017.64 1018.20 1018.79 1019.16 1019.51 1019.88 1020.17 1020.43 1020.44 1020.43 1020.51 1020.63 1021.02 1021.20 1021.48 1021.64 1021.93 1021.94 1022.05 1022.55 1022.66
1007.96 1008.37 1007.62 1006.94 1006.93 1007.29 1007.98 1008.67 1009.28 1009.85 1009.51 1009.66 1009.79 1010.42 1011.06 1011.65 1012.38 1013.48 1014.66 1015.26 1015.76 1016.40 1016.98 1017.61 1018.06 1018.55 1019.03 1019.40 1019.72 1020.02 1020.35 1020.28 1020.29 1020.51 1020.98 1021.38 1021.57 1021.86 1022.16 1022.61 1022.81 1023.16 1023.34
1008.78 1008.80 1007.75 1007.47 1007.29 1007.16 1007.37 1008.01 1008.48 1009.17 1009.68 1010.52 1010.84 1010.96 1011.56 1011.75 1012.72 1013.46 1014.57 1015.70 1016.82 1016.45 1016.54 1017.10 1017.55 1017.95 1018.50 1019.01 1019.31 1019.77 1019.98 1020.14 1020.30 1020.45 1020.85 1021.37 1021.62 1021.98 1022.40 1022.89 1023.20 1023.54 1023.90
1009.30 1009.04 1008.17 1007.86 1007.84 1007.81 1008.42 1008.80 1009.13 1009.21 1009.65 1010.42 1011.35 1011.69 1012.06 1013.15 1013.80 1013.81 1014.09 1014.96 1015.61 1015.87 1015.99 1016.40 1016.81 1017.31 1017.88 1018.25 1018.52 1018.96 1019.34 1019.77 1020.06 1020.47 1020.88 1021.22 1021.67 1021.98 1022.64 1022.93 1023.49 1023.84 1024.20
1009.80 1009.51 1009.35 1008.66 1007.82 1008.32 1008.94 1009.50 1009.61 1009.64 1007.67 1011.22 1011.73 1011.98 1012.49 1013.14 1014.22 1015.09 1014.08 1014.58 1015.04 1015.04 1015.48 1015.90 1016.47 1016.91 1017.28 1017.60 1018.06 1018.42 1018.97 1019.46 1019.85 1020.16 1020.59 1021.03 1021.48 1021.82 1022.53 1022.93 1023.48 1024.06 1024.51
1011.13 1010.44 1010.36 1010.15 1008.45 1007.81 1007.84 1009.27 1010.12 1010.35 1010.67 1012.88 1012.80 1012.98 1012.61 1012.34 1012.83 1013.94 1013.89 1014.25 1014.97 1014.89 1015.14 1015.57 1015.96 1016.20 1016.59 1016.96 1017.42 1017.89 1018.35 1018.80 1019.18 1019.70 1020.16 1020.65 1021.19 1021.90 1022.22 1022.68 1023.33 1024.10 1024.62
1011.60 1011.16 1011.38 1011.24 1010.04 1008.77 1008.29 1007.57 1009.82 1010.21 1011.12 1011.94 1012.84 1012.87 1013.13 1012.98 1013.30 1013.98 1013.70 1013.98 1014.48 1014.66 1014.71 1015.01 1015.56 1015.66 1015.77 1016.15 1016.54 1017.04 1017.56 1018.12 1018.59 1019.06 1019.67 1020.21 1020.84 1021.52 1022.02 1022.54 1023.21 1023.87 1024.64
1012.46 1012.37 1012.07 1011.38 1010.57 1010.30 1009.94 1008.02 1008.15 1011.25 1012.06 1012.99 1013.56 1013.83 1013.61 1013.32 1013.41 1013.85 1013.51 1013.99 1014.40 1014.38 1014.46 1014.53 1014.89 1015.12 1015.14 1015.20 1015.41 1015.77 1016.49 1016.95 1017.38 1018.04 1018.86 1019.56 1020.36 1021.16 1021.76 1022.30 1022.86 1023.48 1024.15
1013.50 1012.95 1012.46 1012.24 1012.16 1011.74 1011.76 1011.37 1007.61 1012.32 1014.81 1014.97 1015.29 1015.23 1014.75 1014.67 1014.67 1014.37 1013.90 1014.38 1014.64 1014.54 1014.47 1014.53 1014.53 1014.46 1014.35 1014.69 1015.02 1015.18 1015.45 1016.00 1016.58 1017.22 1017.77 1018.72 1019.57 1020.34 1021.22 1021.87 1022.37 1022.68 1023.29
1014.04 1013.72 1013.62 1013.81 1013.64 1013.57 1013.25 1012.75 1013.12 1014.32 1015.52 1016.12 1016.58 1016.89 1016.54 1016.16 1015.76 1015.79 1015.32 1014.84 1015.09 1014.42 1014.66 1014.69 1014.82 1014.52 1014.34 1014.21 1014.37 1014.80 1014.97 1015.56 1015.99 1016.56 1017.38 1017.95 1018.66 1019.43 1020.24 1020.98 1021.66 1022.22 1022.76
1015.44 1015.29 1015.14 1015.04 1014.89 1014.90 1014.78 1014.97 1015.20 1015.96 1016.45 1016.67 1016.97 1017.46 1017.48 1017.48 1017.36 1016.87 1016.04 1015.74 1016.11 1014.94 1015.52 1015.15 1014.94 1014.50 1014.57 1014.54 1014.38 1014.04 1014.56 1014.97 1015.54 1015.98 1016.56 1017.28 1017.96 1018.79 1019.43 1020.09 1020.68 1021.29 1021.94
Wind_Speed
12 11 9 9 8 7 6 6 6 4 4 4 2 2 2 3 4 5 5 6 7 6 5 7 7 4 4 4 3 3 3 3 4 3 2 3 6 4 3 2 3 2 2
13 12 12 9 9 9 7 7 6 7 5 5 3 2 2 3 3 6 6 6 7 6 6 7 7 4 7 6 5 6 5 5 4 3 2 3 3 2 1 2 3 2 1
13 12 11 10 10 10 9 7 6 7 7 6 4 4 3 1 5 5 6 7 8 6 6 7 6 7 6 4 5 6 5 5 5 3 2 2 2 3 3 2 2 2 3
14 12 12 11 12 11 8 7 7 7 7 6 5 5 4 5 6 6 8 9 8 6 6 6 6 7 7 6 6 6 4 5 4 3 3 2 1 2 1 2 3 2 3
15 13 13 12 11 9 8 8 7 7 7 6 6 5 4 6 6 9 9 9 9 8 6 6 6 9 12 9 5 4 6 5 4 4 3 3 3 3 2 2 2 1 1
15 15 12 10 10 10 9 8 8 8 7 5 6 6 5 4 14 13 12 10 9 9 8 7 6 12 10 11 12 12 8 5 3 3 3 3 4 3 3 3 1 1 2
14 13 12 11 11 10 10 9 9 9 7 6 6 6 4 5 15 15 15 10 9 8 8 7 6 5 8 6 9 9 9 9 5 2 3 4 4 3 4 4 4 3 2
12 12 12 13 12 10 10 10 9 6 8 5 6 6 6 6 14 16 14 9 8 7 7 7 8 6 6 7 5 5 4 5 5 5 5 5 4 5 2 1 0 2 1
13 13 12 13 12 11 11 11 9 7 6 6 5 7 9 8 14 16 12 8 8 7 6 6 7 7 7 8 6 4 2 2 4 5 4 10 12 13 11 3 5 4 2
12 13 12 12 12 13 12 11 8 5 7 5 6 8 10 11 14 15 13 8 8 5 6 6 9 7 8 10 6 6 3 3 3 2 4 5 8 9 15 7 4 6 3
10 10 11 12 13 12 11 9 7 7 6 6 7 6 9 12 12 16 15 9 8 6 5 5 4 8 8 10 8 6 4 3 4 4 4 3 4 5 5 5 6 4 5
6 11 12 12 10 9 12 9 8 8 7 7 8 6 5 8 12 13 14 11 11 8 7 4 5 9 7 9 5 7 6 5 4 3 3 2 2 3 4 6 9 8 6
6 6 9 9 10 10 11 10 7 8 7 7 7 7 6 6 7 9 13 15 11 6 5 8 10 9 9 7 7 7 5 4 3 2 3 3 3 3 1 3 4 6 9
10 6 6 8 7 8 7 8 9 8 7 8 7 8 7 8 8 6 6 8 9 6 9 6 6 6 5 4 2 3 2 4 4 3 2 2 3 1 0 1 1 2 4
9 8 4 5 8 7 4 2 7 8 7 8 8 8 9 9 11 12 12 10 8 9 9 4 3 2 3 2 1 3 3 3 3 2 3 3 2 1 2 2 2 3 3
8 9 3 4 5 5 6 4 11 6 5 7 14 11 8 6 20 19 13 14 16 18 5 4 4 4 5 5 3 2 1 4 3 3 3 3 4 4 3 3 4 4 4
8 8 7 2 4 5 5 6 6 4 10 8 11 17 14 14 21 21 17 17 20 13 4 4 6 6 5 5 5 4 4 3 4 4 4 4 4 4 4 3 4 4 4
9 11 2 4 3 1 6 6 5 6 6 3 9 7 3 19 16 18 20 14 7 1 6 7 7 7 5 5 5 4 3 4 3 3 4 4 5 5 4 4 3 5 3
8 7 4 5 7 8 8 7 3 3 1 3 3 6 12 14 10 18 22 9 11 9 6 6 6 6 5 5 5 5 6 5 5 4 3 4 5 6 4 5 5 6 5
9 12 9 3 8 8 8 9 12 8 7 3 3 3 8 8 7 10 6 7 8 7 6 5 5 5 5 6 5 5 5 5 5 4 4 5 5 6 6 6 5 5 4
7 6 9 6 2 6 9 10 6 4 10 9 2 1 4 9 11 10 7 4 4 3 4 5 5 5 5 5 5 6 7 6 5 5 5 5 6 5 5 6 6 5 5
6 7 5 4 4 5 6 12 9 6 4 8 3 1 8 3 4 4 4 5 4 5 4 4 3 5 6 8 8 8 8 8 6 6 7 6 6 5 5 6 7 7 6
7 6 6 7 8 8 6 9 15 12 12 3 4 3 1 4 5 5 4 3 3 4 3 4 4 0 4 6 7 9 10 10 10 8 8 7 6 6 5 7 7 8 7
8 9 10 10 10 10 8 7 16 18 6 7 7 7 8 7 5 7 6 2 3 3 3 3 3 5 5 5 5 6 6 6 8 9 11 9 8 8 5 6 7 8 9
9 10 11 9 10 9 10 13 12 11 9 7 7 6 7 7 8 7 6 5 6 3 2 3 4 4 2 7 10 9 9 13 10 11 7 9 10 11 10 9 8 7 6
7 10 9 9 10 9 10 10 10 9 9 8 8 8 8 8 7 7 8 9 7 7 9 6 4 4 6 4 8 13 14 14 12 12 10 8 9 8 9 10 12 9 9
Wind_Direction
186 185 181 187 195 200 207 218 233 263 258 259 277 338 6 331 54 106 105 105 98 90 76 86 71 65 56 45 41 45 48 87 115 4 4 327 29 71 53 63 93 101 91
186 182 192 185 191 199 204 208 219 246 253 249 253 265 302 314 76 126 127 125 113 101 93 83 75 66 56 40 43 43 51 51 105 90 335 347 13 23 201 185 192 173 170
182 183 187 182 186 204 201 194 202 232 245 254 247 250 259 139 125 122 137 114 111 105 107 99 100 87 64 52 50 61 49 59 53 90 308 328 307 12 354 327 196 162 216
182 183 185 187 192 197 198 187 194 219 229 237 234 240 240 145 146 134 112 110 101 91 89 95 100 98 100 85 78 73 71 72 51 39 9 344 340 311 326 264 308 234 200
180 183 192 192 191 189 186 187 196 213 222 218 220 233 226 148 157 135 125 119 115 105 89 92 105 112 107 106 112 104 88 74 49 14 360 350 345 341 338 294 269 265 139
180 191 187 182 179 186 188 186 192 212 221 194 211 219 229 173 151 138 133 131 126 124 116 92 94 98 98 106 99 98 104 99 59 25 349 348 330 289 290 290 287 345 15
183 180 182 179 182 186 182 178 194 205 207 199 211 214 186 150 149 135 135 137 133 136 133 129 122 117 108 101 93 85 80 83 86 106 41 346 312 293 309 346 19 81 66
181 182 179 180 184 177 175 184 199 190 206 184 199 188 143 142 140 136 128 126 132 139 142 141 132 147 147 129 115 83 64 80 90 72 63 6 347 323 305 304 234 74 56
175 182 184 182 178 174 181 187 195 193 198 181 174 155 153 144 146 137 128 129 137 145 144 145 150 167 193 149 124 120 91 81 140 137 53 17 12 21 20 352 33 53 24
180 185 179 179 179 182 181 186 195 183 198 157 160 164 160 151 160 144 139 141 143 149 143 153 157 168 196 167 139 144 113 222 173 95 43 3 15 13 28 28 19 43 8
178 167 173 180 183 185 178 184 184 188 169 160 160 149 160 159 166 159 150 149 157 151 149 158 166 158 159 156 144 142 174 183 215 132 116 52 23 19 6 2 23 37 35
229 172 178 180 181 176 179 187 189 171 175 162 158 146 152 156 165 168 154 148 152 152 163 163 165 153 125 123 126 144 142 125 95 101 125 108 57 41 10 39 42 41 39
316 200 179 179 185 180 180 180 181 180 178 172 170 159 155 150 154 147 157 146 144 137 150 164 155 144 113 117 150 122 98 119 112 69 104 178 177 181 133 18 36 46 45
346 244 169 174 173 182 187 185 185 185 184 181 176 169 158 156 154 164 163 154 135 113 131 132 137 128 121 135 89 45 141 157 154 135 89 103 118 198 35 294 25 52 24
351 301 200 177 178 180 164 216 202 201 192 190 184 169 166 171 179 178 168 166 162 149 123 108 109 113 131 138 94 107 104 135 139 119 110 135 158 107 346 14 49 52 49
7 319 232 183 188 174 154 121 52 53 359 214 159 170 200 172 153 169 170 147 137 144 120 144 169 172 168 169 162 146 152 140 145 133 104 112 113 104 76 43 64 55 69
6 330 318 292 217 155 159 173 176 40 76 56 179 183 175 161 163 160 149 144 150 147 154 173 176 171 181 175 175 164 174 191 157 138 118 125 120 103 92 73 78 76 48
360 301 1 25 355 202 175 183 178 177 168 137 45 78 115 148 149 140 134 121 156 269 174 180 186 184 175 174 175 173 171 158 156 156 124 129 137 131 114 99 93 101 85
359 334 32 76 67 60 60 28 14 300 66 138 112 69 78 75 114 150 154 162 175 189 183 183 186 183 174 174 180 172 171 170 162 159 141 136 146 133 122 113 103 99 103
349 347 307 53 103 96 81 63 48 31 32 343 245 151 134 111 142 183 186 168 185 195 185 178 171 181 181 183 175 173 166 161 156 156 162 152 158 144 141 134 119 116 108
320 338 338 319 293 139 117 88 51 47 52 319 5 35 196 162 160 187 182 146 178 152 155 167 180 191 188 177 165 167 172 175 164 150 149 152 145 139 149 141 131 122 126
6 3 342 306 314 33 104 114 87 65 357 198 144 151 167 101 130 161 152 136 166 175 187 171 170 209 190 179 177 173 172 172 174 159 160 161 152 145 150 143 142 140 142
31 35 32 31 30 19 0 99 94 56 16 8 25 324 159 131 133 166 149 152 163 152 182 179 175 174 212 188 179 172 174 183 184 168 165 162 156 156 161 160 159 152 155
42 40 51 50 42 44 41 30 79 84 63 23 25 2 16 21 44 47 38 343 230 213 225 212 218 184 182 182 168 183 176 168 165 175 163 166 164 161 158 162 174 172 170
48 49 50 46 51 51 47 51 57 69 72 57 45 24 18 17 23 15 29 36 11 26 306 273 241 220 276 180 173 187 175 166 173 162 164 164 167 165 170 176 173 170 166
36 55 58 58 52 54 62 65 66 63 65 55 48 31 30 28 15 9 18 25 1 30 13 347 337 349 311 280 221 179 173 184 179 174 166 173 171 171 174 178 177 173 176